Other Public Products
Issued by NWS Grand Forks, ND

Home | Current Version | Previous Version | Graphics & Text | Print | Product List | Glossary On
Versions: 1 2 3 4 5 6 7 8 9 10 11 12 13 14 15 16 17 18 19 20 21 22 23 24 25 26 27 28 29 30 31 32 33 34 35 36 37 38 39 40 41 42 43 44 45 46 47 48 49 50
000
FPUS83 KFGF 121610
OPUFGF
PRAIRIE TO PINES WEATHER ROUNDUP
NATIONAL WEATHER SERVICE EASTERN NORTH DAKOTA/GRAND FORKS ND
1100 AM CDT SAT JUL 12 2014

 **SATELLITE DATA USED TO AUGMENT SKY COVER AT AUTOMATED STATIONS**
 *****  WEATHER ACROSS EASTERN NORTH DAKOTA  *****

CITY           SKY/WX    TMP DP  RH WIND       PRES   REMARKS
GRAND FORKS    CLOUDY    70  57  63 SW9       30.02F
GRAND FORKS AF NOT AVBL
GRAND CITY NWS   N/A     75 N/A N/A W7          N/A
BUXTON         NOT AVBL
DEVILS LAKE    MOSUNNY   72  55  56 SW13      30.04F
FARGO          CLOUDY    72  59  63 VRB6      30.03F
WAHPETON ARPT  CLOUDY    68  57  68 NW6       30.05F
$$

 *****  WEATHER ACROSS CENTRAL AND WESTERN NORTH DAKOTA  *****

CITY           SKY/WX    TMP DP  RH WIND       PRES   REMARKS
JAMESTOWN      CLOUDY    70  58  65 SW5       30.07F
BISMARCK       PTSUNNY   71  59  65 W8        30.11S
MINOT          SUNNY     73  51  46 W10       30.07F
MINOT AFB      NOT AVBL
GARRISON         N/A     70  59  68 W8        30.10S
WILLISTON      PTSUNNY   76  53  44 SW13      30.11F
DICKINSON      MOSUNNY   68  60  75 SW7       30.14S
HETTINGER      MOSUNNY   69  60  73 SW7       30.16R
$$

 *****  OTHER OBSERVATIONS NORTHEAST NORTH DAKOTA  *****

CITY           SKY/WX    TMP DP  RH WIND       PRES   REMARKS
WALHALLA         N/A     72  54  53 W10G17      N/A
LANGDON        FAIR      72  55  56 W14G20    30.03F
CAVALIER       FAIR      72  52  49 W15       30.00F
GRAFTON        FAIR      73  55  53 W14       30.01F
CANDO          FAIR      72  57  60 W16       30.05F
FORT TOTTEN      N/A     70  59  67 SW7       29.95
ROLLA          FAIR      68  55  64 SW14      30.05F
RUGBY          FAIR      70  55  60 W10       30.05F
 ***** THE ABOVE OBSERVATIONS ARE NON NWS ARE NOT QUALITY
        CONTROLLED AND MAY MIS-REPORT RAIN FOR SNOW...
$$

 *****  OTHER OBSERVATIONS SOUTHEAST NORTH DAKOTA *****

CITY           SKY/WX    TMP DP  RH WIND       PRES   REMARKS
COOPERSTOWN    NOT AVBL
VALLEY CITY    FAIR      68  63  83 SW7       30.07F
OAKES          NOT AVBL
GWINNER        SUNNY     68  63  83 SW7       30.09S
BUFFALO        NOT AVBL
WYNDMERE       NOT AVBL
 ***** THE ABOVE OBSERVATIONS ARE NON NWS ARE NOT QUALITY
       CONTROLLED AND MAY MIS-REPORT RAIN FOR SNOW...
$$

  *****  WEATHER ACROSS NORTHERN MINNESOTA  *****

CITY           SKY/WX    TMP DP  RH WIND       PRES   REMARKS
FLAG ISLAND    MOSUNNY   70  57  64 S10       29.98F
WARROAD        MOSUNNY   72  57  60 SW10      30.00F
ROSEAU         PTSUNNY   72  59  64 SW12      30.00F
HALLOCK        MOSUNNY   72  55  56 W10       30.00F
THF RVR FALLS  PTSUNNY   70  57  64 SW9       30.03F
HALSTAD          N/A     71  55  58 W6          N/A
FOSSTON        CLOUDY    70  55  60 SW8       30.05S
BAUDETTE       PTSUNNY   71  53  52 S3        30.01F
WASKISH        CLOUDY    72  61  68 CALM      30.02S
CROOKSTON      PTSUNNY   70  57  64 SW9       30.04S
$$
  *****  WEATHER ACROSS CENTRAL AND WEST MINNESOTA  *****

CITY           SKY/WX    TMP DP  RH WIND       PRES   REMARKS
BEMIDJI        PTSUNNY   71  55  56 CALM      30.02F
PARK RAPIDS    CLOUDY    69  59  70 SW3       30.04S
WADENA         CLOUDY    66  61  82 CALM      30.03S
DETROIT LAKES  CLOUDY    70  59  68 NW6       30.06S
MOORHEAD       CLOUDY    72  63  73 W5        30.04F
FERGUS FALLS   CLOUDY    68  61  77 NW7       30.05R
ELBOW LAKE     PTSUNNY   68  61  77 N5        30.05R
MORRIS MN      CLOUDY    70  63  78 SW10      30.05R
STAPLES        CLOUDY    68  61  77 CALM      30.03S
WHEATON        CLOUDY    66  61  82 W8        30.09R
$$
  *****  WEATHER ELSEWHERE ACROSS MINNESOTA  *****

CITY           SKY/WX    TMP DP  RH WIND       PRES   REMARKS
DULUTH         PTSUNNY   72  57  59 N5        29.99F
INTRNTL FALLS  MOSUNNY   69  50  50 CALM      30.00F
ELY            MOSUNNY   70  54  56 NW5       30.01R
CLOQUET        CLOUDY    72  55  56 CALM      30.01S
BRAINERD       CLOUDY    75  59  57 CALM      30.01F
HIBBING        PTSUNNY   73  53  49 CALM      30.01F
ALEXANDRIA     CLOUDY    70  59  68 E3        30.05S
SAINT CLOUD    CLOUDY    72  63  73 CALM      29.99F
MINNEAPOLIS    CLOUDY    75  71  87 CALM      29.98S FOG
$$

  *****  WEATHER ACROSS SOUTH DAKOTA  *****

CITY           SKY/WX    TMP DP  RH WIND       PRES   REMARKS
SIOUX FALLS    CLOUDY    74  67  78 NW5       30.05R
BROOKINGS      NOT AVBL
WATERTOWN      LGT RAIN  63  62  97 N7        30.09F
HURON          CLOUDY    68  64  87 N10       30.08F
SISSETON         N/A     69  61  75 W6        30.07S
ABERDEEN       LGT RAIN  63  61  93 W3        30.10F
MITCHELL       CLOUDY    73  66  78 N15       30.08R
PIERRE         CLOUDY    68  61  78 SE9       30.08F
MOBRIDGE       PTSUNNY   68  62  81 S5        30.07F
RAPID CITY     CLOUDY    63  60  90 SE6       30.19S
$$

  *****  SOME WEATHER IN NEARBY STATES *****

CITY           SKY/WX    TMP DP  RH WIND       PRES   REMARKS
GLASGOW MT     NOT AVBL
GREAT FALLS MT SUNNY     71  54  54 CALM      30.24R
CHEYENNE WY    CLOUDY    68  58  70 N10       30.32R
SCOTTSBLUFF NE PTSUNNY   71  61  70 E6        30.22R
OMAHA NE       CLOUDY    79  70  74 CALM      29.98R
DES MOINES IA  CLOUDY    79  71  76 S10       29.99F
DAVENPORT IA   PTSUNNY   79  71  76 S8        30.02S
CHICAGO IL     LGT RAIN  72  67  84 S13       30.05S
EAU CLAIRE WI  CLOUDY    73  69  87 W5        29.98F
LA CROSSE WI   CLOUDY    76  69  79 N5        29.97F
$$

  *****  SOME NATIONAL WEATHER *****

CITY           SKY/WX    TMP DP  RH WIND       PRES   REMARKS
LA GUARDIA NY  PTSUNNY   84  55  36 W7        30.20F
RALEIGH NC     PTSUNNY   84  67  56 VRB5      30.23S
ATLANTA GA     PTSUNNY   80  70  71 CALM      30.24S
NEW ORLEANS LA MOSUNNY   86  72  62 N7        30.16R HX  92
OKLAHOMA CITY  SUNNY     87  65  47 SW15G23   30.14F
ALBUQUERQUE NM MOSUNNY   73  57  57 CALM      30.27R
SALT LAKE CITY MOSUNNY   78  57  48 E5        30.19S
LOS ANGELES CA PTSUNNY   72  61  68 SW3       30.00F
BOISE ID       SUNNY     83  38  20 W8        30.12R
SEATTLE WA     MOSUNNY   69  56  62 VRB3      30.10S
$$

*** WEATHER ACROSS MANITOBA...SASKATCHEWAN AND ONTARIO ***
                ***ONTARIO***

CITY           SKY/WX    TMP DP  RH WIND       PRES   REMARKS
GERALDTON      MOSUNNY   68  52  56 NW9       29.92S
THUNDER BAY    MOSUNNY   73  55  53 NW8       29.95F
SIOUX LOOKOUT  MOSUNNY   68  48  49 NW3       29.96F
TORONTO        PTSUNNY   77  59  53 SE7       30.14F
BIG TROUT LK   SUNNY     66  48  52 W10G18    29.72F
PICKLE LAKE    MOSUNNY   68  45  42 W9        29.89F
DRYDEN         SUNNY     68  41  37 SW7       29.98F
KENORA         CLOUDY    70  46  43 S14       29.99F
$$
                *** MANITOBA***

CITY           SKY/WX    TMP DP  RH WIND       PRES   REMARKS
BRANDON        MOSUNNY   72  57  60 W20G29    29.98F
DAUPHIN        SUNNY     73  55  53 W26G36    29.87F
ISLAND LAKE    CLOUDY    66  50  55 SW3       29.66F
PILOT MOUND      N/A     70  57  64 W10         N/A
THE PAS        PTSUNNY   57  46  67 NW12      29.82F
THOMPSON       LGT RAIN  55  52  88 W16G23    29.66
WINNIPEG       MOSUNNY   73  54  49 SW16      29.95F
LYNN LAKE      PTSUNNY   52  45  76 NW20G28   29.76R
CHURCHILL      LGT RAIN  45  43  93 N17       29.45R FOG
GILLAM         CLOUDY    57  45  62 W17G28    29.59S
$$
                ***SASKATCHEWAN***

CITY           SKY/WX    TMP DP  RH WIND       PRES   REMARKS
ESTEVAN        CLOUDY    70  55  60 W12G17    30.09F
KINDERSLEY     MOSUNNY   70  55  60 NW12G18   30.14R
LLOYDMINSTER   PTSUNNY   64  50  59 N9        30.15R
PRINCE ALBERT  MOSUNNY   64  46  52 N18G25    30.02R
REGINA         SUNNY     70  57  64 W15G28    30.05F
YORKTON        MOSUNNY   72  54  53 W18G24    29.92F



USA.gov is the U.S. government's official web portal to all federal, state and local government web resources and services.